Wind_Speed
5 4 9 11 13 15 15 15 15 15 14 13 13 13 14 13 12 10 7 4 1 2 5 6 6 7 8 7 7 7 4 4 4 3 3 4 4 5 6 6 7 7 8 8
6 6 9 11 13 13 14 15 16 15 14 14 13 12 11 11 11 10 8 6 4 2 2 5 6 6 6 6 5 5 3 2 2 2 2 2 3 4 5 6 7 7 7 8
8 8 9 11 12 13 13 15 16 15 14 13 11 10 9 8 10 10 9 7 5 5 3 2 3 6 6 5 5 4 4 2 2 1 1 2 3 4 5 6 7 7 8 8
8 9 11 11 12 13 13 12 12 13 13 12 9 7 5 7 9 10 9 8 8 7 6 5 5 6 6 5 5 5 4 3 2 1 1 2 3 4 5 6 7 8 9 9
8 10 12 12 13 13 11 10 9 10 11 9 5 5 5 6 8 9 9 8 8 8 7 7 7 6 6 5 5 5 4 3 1 1 2 2 3 5 6 7 9 10 10 11
10 11 12 12 13 12 10 10 8 7 8 7 4 5 6 6 8 8 9 8 8 8 7 7 7 7 6 5 5 4 3 2 1 1 2 3 4 6 7 8 9 10 11 12
11 12 13 13 12 10 10 10 9 7 6 6 3 3 5 5 7 8 8 7 7 7 6 5 5 5 5 4 3 2 2 1 1 2 3 4 6 7 8 9 9 10 11 12
14 11 12 13 12 11 10 11 11 9 8 7 4 0 2 4 5 6 6 6 5 5 4 3 2 2 3 3 2 2 1 1 2 3 4 6 7 8 9 10 11 11 12 13
15 10 12 13 14 13 11 11 12 11 10 9 6 2 1 2 4 5 4 3 3 3 2 1 1 2 2 3 3 2 2 3 3 4 5 7 8 9 10 11 12 12 13 14
13 12 13 14 15 14 13 12 13 13 12 10 7 5 5 4 3 3 3 2 2 2 1 1 2 3 3 4 4 4 4 5 5 6 7 9 10 11 11 12 13 14 15 16
13 13 14 15 16 17 16 15 14 13 12 13 12 9 8 8 5 4 2 2 1 1 1 1 3 4 4 5 5 5 6 7 8 9 10 11 12 13 14 15 16 17 18 19
12 13 15 16 16 17 16 15 14 13 12 13 13 12 10 9 7 6 5 4 4 4 3 3 4 5 5 6 7 8 8 9 10 11 12 13 14 15 16 17 18 19 20 21
14 15 16 16 16 16 16 15 15 14 12 13 13 13 11 10 10 10 9 8 8 7 6 6 6 6 7 8 9 10 11 12 14 15 16 17 17 18 19 20 20 21 23 24
16 16 16 17 16 13 12 13 14 15 14 14 14 13 14 14 14 14 13 11 9 8 8 8 8 9 10 10 11 12 14 15 17 18 19 20 20 21 22 22 23 24 25 26
19 19 18 18 17 13 12 13 14 15 15 15 15 15 15 16 16 15 14 12 10 10 10 10 10 11 12 13 13 15 16 17 19 20 22 23 23 24 24 25 26 26 27 29
21 20 20 18 17 17 16 15 17 17 17 17 17 17 17 17 16 16 15 14 13 12 11 11 12 13 14 15 16 17 18 20 21 23 24 25 26 27 27 28 29 29 30 31
23 22 21 18 18 18 17 16 18 19 19 20 20 20 19 18 17 17 16 15 14 14 13 12 13 14 15 17 18 20 21 23 24 25 27 28 29 30 30 31 31 32 33 34
23 22 21 19 18 19 16 18 20 22 22 23 23 22 22 20 19 17 16 15 15 15 15 16 16 17 19 20 21 23 24 26 27 28 30 31 32 32 33 33 34 35 36 37
24 23 23 21 21 20 18 19 21 22 23 23 23 23 22 21 20 18 17 16 18 19 20 20 21 22 22 23 24 25 27 29 30 31 32 33 34 34 35 36 37 38 39 39
24 25 25 24 24 23 20 21 22 22 23 22 23 23 23 23 23 21 19 19 21 22 23 24 25 27 27 27 28 29 30 31 32 33 34 35 36 37 38 39 40 41 42 42
25 25 26 27 27 25 22 21 21 22 22 22 22 22 22 22 24 23 22 23 24 26 27 28 29 30 31 32 33 33 34 34 35 36 36 37 38 39 40 41 43 44 45 45
24 26 27 26 25 23 22 22 21 20 20 20 20 19 20 20 21 23 23 25 26 28 29 31 33 34 35 36 36 37 38 37 38 38 39 40 40 42 43 44 45 46 47 47
25 26 26 25 24 23 23 21 21 20 20 19 18 19 20 21 21 23 25 27 29 30 31 33 35 36 37 38 39 39 40 40 40 41 42 43 44 45 46 47 48 48 49 49
26 27 27 27 26 25 25 22 23 23 22 21 21 21 22 22 23 24 26 27 29 30 32 34 35 36 38 39 40 40 41 43 44 45 45 46 47 48 49 50 51 51 51 52
27 28 28 28 28 27 27 26 25 24 24 24 25 24 24 25 25 26 27 29 30 31 33 34 36 37 39 40 41 43 44 45 46 47 48 49 50 51 52 52 53 54 54 54
28 29 30 30 29 30 29 27 26 25 26 27 27 27 27 28 29 30 31 32 33 34 35 36 38 39 40 41 42 44 45 46 47 48 49 51 52 53 54 55 56 56 57 57
Wind_Direction
294 331 1 2 359 357 351 346 343 345 347 351 359 1 0 5 6 16 18 19 131 209 225 234 233 233 233 242 237 233 251 266 276 290 303 311 312 314 318 324 325 323 322 323
293 320 345 351 352 342 334 332 335 341 341 343 349 355 357 4 15 27 31 37 45 50 218 228 232 222 213 211 212 223 226 243 260 278 304 316 318 321 327 332 334 332 331 332
307 324 336 338 333 324 328 328 336 341 342 341 348 356 359 13 28 35 38 44 54 47 60 157 181 175 179 184 194 200 195 193 192 225 310 326 328 327 330 332 333 335 337 337
325 331 330 328 321 321 326 334 338 345 344 338 337 355 31 45 45 47 46 51 59 71 80 98 129 143 151 160 172 175 171 166 170 226 314 325 327 329 333 336 337 336 335 336
325 322 324 325 318 319 322 323 328 338 343 344 4 47 63 56 57 58 55 53 59 70 79 97 110 121 126 138 148 150 150 156 175 270 307 320 330 338 343 344 343 340 336 334
313 320 328 333 329 319 320 315 317 329 338 350 24 67 64 60 63 64 62 60 64 68 77 96 110 116 124 133 137 140 144 161 231 298 328 340 343 344 346 346 343 338 335 335
299 318 325 327 329 316 316 315 306 309 326 348 357 68 54 61 64 65 62 64 68 69 73 86 104 122 139 147 153 159 168 203 287 320 341 346 346 345 345 344 341 338 338 336
292 309 319 320 318 309 309 309 302 301 315 330 335 267 61 71 64 61 61 63 69 78 79 87 115 147 164 178 187 190 208 266 309 334 341 342 342 340 339 338 338 336 334 330
283 299 304 302 298 301 301 297 292 289 295 307 323 294 286 39 47 47 57 69 78 87 106 147 199 208 209 223 235 244 268 290 311 326 333 336 335 332 332 333 332 329 326 324
278 289 295 296 290 292 295 287 283 280 279 287 286 284 288 318 338 3 17 44 74 81 141 215 235 244 246 250 254 264 279 294 306 316 322 326 326 325 325 324 323 321 319 317
274 289 296 296 286 283 285 284 274 273 272 275 278 277 283 298 301 318 329 332 349 25 355 268 257 266 269 267 269 276 284 293 300 307 311 314 316 317 317 318 319 318 316 314
278 287 295 299 292 284 283 281 271 265 268 271 274 282 287 293 303 310 317 318 319 325 323 304 281 278 279 278 280 285 290 294 297 300 303 305 309 311 311 312 313 313 313 312
283 287 295 298 294 285 280 278 266 258 263 264 270 281 281 285 296 302 307 314 316 318 318 311 304 299 294 291 290 291 293 294 296 298 299 301 303 305 307 307 307 307 306 306
285 286 293 302 301 288 275 267 257 253 258 262 269 277 279 282 288 294 300 305 309 312 314 313 310 305 301 297 294 294 293 294 295 296 297 298 299 301 302 303 304 304 304 303
285 283 288 300 302 288 268 257 250 250 253 259 266 272 277 280 284 289 294 300 305 311 311 308 305 301 298 296 293 292 291 292 292 292 293 294 296 298 300 301 301 302 303 303
282 283 287 292 296 285 265 258 249 249 252 257 263 268 272 274 278 283 288 294 300 303 302 299 296 294 293 292 291 289 289 289 289 289 290 291 293 295 296 298 299 300 301 303
280 282 286 290 292 287 273 261 252 251 256 259 261 267 271 270 273 278 281 287 293 295 294 293 288 287 290 291 290 290 289 289 289 288 289 290 292 293 295 296 298 298 300 303
277 279 284 286 288 286 275 259 254 256 259 262 262 262 260 266 267 273 275 280 288 290 291 291 289 287 289 291 291 291 291 290 288 288 289 290 292 293 294 295 296 298 300 301
274 276 279 280 283 283 276 266 262 264 264 264 264 262 265 266 265 269 270 275 283 289 292 292 291 290 288 289 290 291 292 291 290 289 290 291 292 292 294 295 296 298 299 300
271 272 276 277 278 278 275 268 264 269 271 270 271 270 270 267 265 269 272 278 281 288 289 288 289 289 288 290 292 291 291 290 289 289 290 290 291 292 293 295 296 297 298 299
271 272 276 277 276 276 274 266 265 270 278 279 273 275 276 271 267 273 277 283 286 288 288 289 291 292 292 292 292 292 291 290 289 289 289 289 290 291 292 293 294 296 297 298
274 276 277 280 279 275 274 264 267 277 280 284 279 282 281 280 281 282 282 283 284 288 289 291 292 291 291 291 291 291 290 289 288 288 288 288 289 290 291 292 293 294 295 296
276 279 280 281 285 289 287 281 281 282 284 282 286 291 292 290 287 285 285 285 286 287 288 289 289 289 289 289 289 289 289 289 288 289 289 289 290 290 291 291 292 293 294 295
274 277 281 283 287 288 289 288 292 292 292 296 297 295 294 293 291 290 289 289 289 289 288 288 288 288 288 288 288 288 289 289 289 290 290 290 290 291 291 291 292 292 293 293
274 277 281 285 287 289 289 290 290 292 295 296 296 297 296 296 295 294 293 292 292 291 290 289 288 288 288 288 288 288 289 289 289 290 290 290 290 290 291 291 291 292 292 292
274 277 280 283 284 286 286 287 288 290 290 292 295 295 295 296 296 296 295 294 294 292 291 291 290 290 289 289 289 289 289 289 289 289 289 289 290 290 290 290 290 290 290 290
Height
5901 5900 5897 5895 5892 5890 5889 5887 5885 5884 5881 5879 5876 5873 5869 5866 5862 5859 5858 5856 5857 5857 5859 5860 5862 5864 5866 5868 5869 5871 5872 5873 5873 5873 5873 5872 5872 5871 5870 5869 5868 5867 5865 5864
5900 5897 5895 5892 5890 5889 5888 5886 5884 5883 5881 5879 5876 5873 5870 5866 5863 5860 5859 5859 5858 5858 5857 5858 5861 5862 5864 5866 5869 5870 5871 5871 5872 5872 5872 5871 5871 5870 5868 5867 5866 5865 5863 5862
5897 5896 5893 5891 5889 5888 5886 5885 5883 5882 5880 5878 5876 5874 5871 5867 5864 5862 5861 5860 5859 5858 5857 5858 5859 5861 5863 5866 5868 5869 5870 5870 5871 5871 5870 5870 5870 5869 5867 5866 5865 5863 5861 5860
5895 5894 5892 5890 5888 5887 5885 5884 5882 5880 5878 5876 5875 5873 5871 5869 5866 5864 5863 5862 5861 5860 5860 5860 5860 5862 5864 5865 5867 5868 5869 5869 5870 5870 5869 5869 5868 5867 5866 5864 5863 5861 5859 5858
5894 5893 5891 5889 5887 5885 5884 5882 5881 5879 5877 5875 5874 5873 5872 5869 5867 5866 5865 5863 5862 5862 5862 5862 5862 5863 5864 5865 5866 5867 5868 5868 5869 5869 5868 5868 5867 5866 5864 5863 5861 5859 5857 5856
5892 5891 5889 5887 5885 5882 5882 5881 5880 5878 5876 5875 5874 5874 5872 5870 5868 5867 5866 5865 5864 5863 5863 5863 5864 5865 5865 5866 5866 5867 5867 5868 5868 5867 5867 5866 5865 5864 5863 5861 5859 5857 5855 5853
5889 5889 5887 5885 5883 5881 5880 5879 5878 5877 5875 5875 5873 5873 5873 5870 5868 5867 5866 5865 5865 5864 5864 5865 5865 5865 5866 5866 5866 5867 5867 5867 5866 5866 5865 5864 5863 5862 5860 5859 5857 5855 5853 5851
5885 5885 5884 5883 5881 5880 5878 5877 5876 5875 5873 5873 5872 5872 5872 5869 5868 5866 5866 5865 5865 5865 5865 5865 5865 5866 5866 5866 5866 5866 5865 5865 5865 5864 5863 5862 5861 5859 5858 5856 5855 5853 5851 5849
5881 5882 5881 5880 5878 5878 5877 5875 5874 5873 5871 5870 5870 5870 5870 5869 5867 5866 5866 5866 5865 5865 5865 5865 5865 5865 5865 5865 5865 5864 5864 5863 5863 5862 5861 5860 5859 5857 5856 5854 5852 5850 5849 5847
5878 5879 5878 5877 5876 5875 5874 5873 5872 5870 5869 5868 5867 5868 5868 5867 5866 5865 5865 5865 5864 5864 5864 5864 5864 5864 5863 5863 5863 5862 5862 5861 5861 5860 5859 5857 5856 5854 5853 5851 5849 5847 5845 5843
5874 5875 5875 5874 5872 5871 5871 5870 5868 5867 5866 5865 5864 5867 5865 5865 5864 5864 5863 5863 5863 5862 5862 5862 5862 5861 5861 5861 5860 5860 5860 5859 5858 5857 5856 5854 5853 5851 5849 5847 5845 5843 5841 5839
5870 5871 5870 5870 5868 5867 5866 5865 5865 5865 5864 5862 5861 5864 5862 5861 5861 5861 5861 5861 5860 5860 5860 5859 5859 5859 5858 5858 5857 5857 5856 5856 5855 5854 5852 5851 5849 5847 5845 5843 5841 5838 5836 5833
5867 5867 5867 5866 5866 5864 5862 5861 5860 5860 5859 5858 5858 5860 5858 5858 5857 5857 5857 5857 5856 5856 5856 5856 5855 5855 5855 5854 5854 5853 5852 5852 5851 5850 5848 5847 5845 5843 5841 5838 5836 5833 5831 5828
5863 5863 5863 5862 5860 5858 5858 5857 5856 5856 5855 5854 5854 5854 5854 5854 5853 5853 5853 5852 5852 5852 5852 5851 5851 5851 5851 5850 5850 5849 5848 5847 5846 5845 5844 5842 5840 5838 5835 5833 5830 5828 5825 5822
5860 5859 5858 5857 5854 5854 5853 5853 5852 5852 5851 5850 5850 5849 5849 5849 5849 5849 5849 5848 5848 5847 5848 5847 5847 5847 5846 5846 5845 5845 5844 5843 5841 5840 5838 5836 5834 5832 5829 5826 5824 5821 5818 5815
5854 5854 5853 5852 5850 5849 5848 5848 5848 5847 5846 5845 5845 5845 5845 5844 5844 5844 5844 5843 5843 5843 5843 5843 5842 5842 5841 5841 5840 5840 5839 5837 5836 5834 5832 5830 5827 5825 5822 5819 5816 5813 5810 5806
5849 5848 5848 5848 5846 5844 5844 5844 5843 5841 5841 5841 5840 5841 5840 5840 5840 5839 5840 5840 5839 5839 5839 5839 5838 5837 5836 5835 5834 5833 5832 5831 5829 5827 5825 5822 5820 5817 5815 5811 5808 5804 5801 5798
5843 5842 5842 5842 5842 5840 5841 5838 5837 5836 5836 5836 5836 5835 5835 5834 5834 5834 5835 5835 5835 5835 5834 5834 5833 5832 5830 5829 5828 5826 5825 5823 5821 5819 5817 5814 5812 5809 5806 5803 5799 5796 5792 5788
5837 5837 5836 5836 5835 5835 5835 5833 5832 5831 5831 5830 5830 5830 5830 5829 5830 5829 5829 5829 5829 5829 5828 5827 5826 5825 5824 5823 5821 5819 5817 5815 5813 5810 5808 5805 5803 5800 5796 5793 5789 5786 5782 5778
5831 5831 5831 5830 5829 5829 5831 5828 5826 5827 5826 5825 5824 5824 5824 5824 5824 5825 5824 5823 5823 5822 5821 5820 5819 5817 5816 5815 5813 5811 5809 5806 5804 5801 5799 5796 5792 5789 5786 5782 5778 5775 5771 5767
5824 5824 5824 5823 5821 5822 5823 5822 5822 5822 5822 5820 5818 5818 5818 5818 5818 5818 5817 5816 5815 5814 5813 5811 5810 5809 5807 5806 5804 5801 5799 5797 5794 5791 5789 5785 5782 5778 5775 5771 5767 5763 5759 5755
5817 5817 5817 5815 5815 5817 5815 5814 5815 5815 5814 5813 5813 5813 5812 5812 5811 5811 5810 5809 5807 5806 5804 5802 5801 5799 5797 5795 5793 5791 5788 5786 5783 5780 5777 5774 5770 5766 5762 5758 5754 5750 5746 5742
5811 5810 5809 5810 5811 5810 5808 5807 5807 5806 5807 5806 5807 5807 5806 5805 5804 5804 5803 5801 5800 5798 5796 5794 5792 5789 5787 5785 5782 5779 5777 5774 5771 5767 5764 5760 5757 5753 5749 5745 5741 5736 5732 5728
5803 5803 5802 5802 5802 5802 5801 5801 5800 5800 5799 5799 5800 5800 5799 5798 5797 5796 5794 5793 5791 5789 5787 5785 5782 5780 5777 5774 5771 5767 5764 5761 5757 5754 5750 5746 5742 5738 5734 5730 5726 5722 5718 5713
5796 5796 5795 5794 5795 5794 5793 5793 5793 5793 5792 5792 5792 5791 5790 5790 5789 5788 5786 5784 5782 5780 5777 5775 5772 5769 5766 5763 5759 5755 5752 5748 5744 5740 5736 5732 5728 5723 5719 5715 5711 5706 5702 5697
5790 5789 5789 5788 5788 5787 5786 5785 5785 5785 5785 5784 5784 5783 5782 5781 5780 5778 5776 5774 5772 5769 5766 5763 5760 5757 5754 5750 5747 5743 5739 5735 5731 5727 5722 5718 5713 5708 5704 5699 5696 5690 5686 5681